Wetterdaten: Sonntag, 08.05.2016
Datum Zeit Auen-Temp. Temp gefhlt Luftfeuchte Luftdruck Regen Wind Richtung Richtung Sonnenschein Taupunkt Windben
08.05.2016 00:00 8,4 C 8,0 C 71 % 1011,8 hPa 0,0 mm 0,3 km/h (0 Bft) O-SO 112 0 min 3,5 C 0,0 km/h (0 Bft)
08.05.2016 00:05 8,6 C 8,3 C 67 % 1011,8 hPa 0,0 mm 0,6 km/h (0 Bft) S-SO 157 0 min 2,8 C 0,0 km/h (0 Bft)
08.05.2016 00:10 8,3 C 8,3 C 68 % 1011,8 hPa 0,0 mm 2,4 km/h (1 Bft) S-SO 157 0 min 2,7 C 3,6 km/h (1 Bft)
08.05.2016 00:15 8,6 C 8,7 C 69 % 1011,6 hPa 0,0 mm 3,3 km/h (1 Bft) SO 135 0 min 3,2 C 5,7 km/h (1 Bft)
08.05.2016 00:20 8,8 C 8,7 C 68 % 1011,6 hPa 0,0 mm 3,0 km/h (1 Bft) S-SO 157 0 min 3,2 C 0,0 km/h (0 Bft)
08.05.2016 00:25 8,2 C 8,2 C 68 % 1011,6 hPa 0,0 mm 2,1 km/h (1 Bft) S-SO 157 0 min 2,7 C 3,9 km/h (1 Bft)
08.05.2016 00:30 8,6 C 8,5 C 69 % 1011,6 hPa 0,0 mm 2,4 km/h (1 Bft) SO 135 0 min 3,2 C 6,6 km/h (2 Bft)
08.05.2016 00:32 8,6 C 8,5 C 69 % 1011,6 hPa 0,0 mm 2,4 km/h (1 Bft) SO 135 0 min 3,2 C 6,6 km/h (2 Bft)
08.05.2016 00:35 8,1 C 8,1 C 71 % 1011,9 hPa 0,0 mm 3,3 km/h (1 Bft) O 90 0 min 3,2 C 0,0 km/h (0 Bft)
08.05.2016 00:39 7,9 C 8,0 C 68 % 1011,9 hPa 0,0 mm 2,1 km/h (1 Bft) O-SO 112 0 min 2,4 C 0,0 km/h (0 Bft)
08.05.2016 00:45 7,7 C 7,6 C 72 % 1011,9 hPa 0,0 mm 0,9 km/h (0 Bft) SO 135 0 min 3,0 C 0,0 km/h (0 Bft)
08.05.2016 00:50 7,8 C 7,7 C 70 % 1011,9 hPa 0,0 mm 2,4 km/h (1 Bft) S-SO 157 0 min 2,7 C 6,9 km/h (2 Bft)
08.05.2016 00:55 7,6 C 7,5 C 74 % 1011,9 hPa 0,0 mm 4,8 km/h (1 Bft) S-SO 157 0 min 3,3 C 8,3 km/h (2 Bft)
08.05.2016 01:00 7,6 C 7,6 C 70 % 1011,9 hPa 0,0 mm 4,2 km/h (1 Bft) S-SO 157 0 min 2,5 C 3,0 km/h (1 Bft)
08.05.2016 01:05 8,0 C 8,0 C 70 % 1011,9 hPa 0,0 mm 3,3 km/h (1 Bft) S-SO 157 0 min 2,9 C 5,1 km/h (1 Bft)
08.05.2016 01:10 8,1 C 8,0 C 70 % 1011,9 hPa 0,0 mm 3,6 km/h (1 Bft) S-SO 157 0 min 3,0 C 4,2 km/h (1 Bft)
08.05.2016 01:15 7,9 C 7,9 C 70 % 1012,0 hPa 0,0 mm 2,4 km/h (1 Bft) O-SO 112 0 min 2,8 C 0,0 km/h (0 Bft)
08.05.2016 01:20 7,9 C 7,8 C 70 % 1012,0 hPa 0,0 mm 0,9 km/h (0 Bft) O-SO 112 0 min 2,8 C 0,0 km/h (0 Bft)
08.05.2016 01:25 7,5 C 7,5 C 70 % 1012,0 hPa 0,0 mm 0,6 km/h (0 Bft) O-SO 112 0 min 2,4 C 0,0 km/h (0 Bft)
08.05.2016 01:30 7,2 C 7,3 C 71 % 1012,0 hPa 0,0 mm 0,3 km/h (0 Bft) O-SO 112 0 min 2,3 C 3,6 km/h (1 Bft)
08.05.2016 01:35 7,2 C 7,2 C 72 % 1012,0 hPa 0,0 mm 1,2 km/h (1 Bft) SO 135 0 min 2,5 C 3,0 km/h (1 Bft)
08.05.2016 01:40 7,2 C 7,2 C 72 % 1012,0 hPa 0,0 mm 1,5 km/h (1 Bft) S-SO 157 0 min 2,5 C 4,5 km/h (1 Bft)
08.05.2016 01:45 7,1 C 7,0 C 72 % 1012,0 hPa 0,0 mm 1,5 km/h (1 Bft) O-SO 112 0 min 2,4 C 4,2 km/h (1 Bft)
08.05.2016 01:50 7,0 C 7,0 C 72 % 1012,0 hPa 0,0 mm 1,8 km/h (1 Bft) SO 135 0 min 2,3 C 4,2 km/h (1 Bft)
08.05.2016 01:55 7,0 C 7,0 C 72 % 1012,0 hPa 0,0 mm 0,9 km/h (0 Bft) NO 45 0 min 2,3 C 0,0 km/h (0 Bft)
08.05.2016 02:00 6,6 C 6,5 C 75 % 1012,0 hPa 0,0 mm 0,6 km/h (0 Bft) O-SO 112 0 min 2,5 C 0,0 km/h (0 Bft)
08.05.2016 02:05 6,7 C 6,4 C 77 % 1012,0 hPa 0,0 mm 0,0 km/h (0 Bft) O-SO 112 0 min 3,0 C 0,0 km/h (0 Bft)
08.05.2016 02:10 6,6 C 6,4 C 73 % 1012,0 hPa 0,0 mm 0,0 km/h (0 Bft) O-SO 112 0 min 2,1 C 0,0 km/h (0 Bft)
08.05.2016 02:15 6,4 C 6,2 C 73 % 1012,1 hPa 0,0 mm 0,0 km/h (0 Bft) S-SO 157 0 min 1,9 C 0,0 km/h (0 Bft)
08.05.2016 02:20 6,4 C 6,2 C 73 % 1012,1 hPa 0,0 mm 0,0 km/h (0 Bft) S-SO 157 0 min 1,9 C 0,0 km/h (0 Bft)
08.05.2016 02:25 6,5 C 6,4 C 74 % 1012,1 hPa 0,0 mm 0,3 km/h (0 Bft) O-SO 112 0 min 2,2 C 0,0 km/h (0 Bft)
08.05.2016 02:30 6,5 C 6,1 C 77 % 1012,1 hPa 0,0 mm 0,3 km/h (0 Bft) NO 45 0 min 2,8 C 0,0 km/h (0 Bft)
08.05.2016 02:35 6,0 C 5,7 C 77 % 1011,9 hPa 0,0 mm 0,0 km/h (0 Bft) W-NW 292 0 min 2,3 C 0,0 km/h (0 Bft)
08.05.2016 02:40 6,3 C 5,9 C 78 % 1011,9 hPa 0,0 mm 0,3 km/h (0 Bft) S-SO 157 0 min 2,8 C 0,0 km/h (0 Bft)
08.05.2016 02:45 6,4 C 6,1 C 74 % 1011,9 hPa 0,0 mm 0,3 km/h (0 Bft) SO 135 0 min 2,1 C 0,0 km/h (0 Bft)
08.05.2016 02:50 6,6 C 6,3 C 74 % 1011,9 hPa 0,0 mm 0,0 km/h (0 Bft) O-NO 67 0 min 2,3 C 0,0 km/h (0 Bft)
08.05.2016 02:55 6,3 C 6,0 C 77 % 1011,9 hPa 0,0 mm 0,3 km/h (0 Bft) S 180 0 min 2,6 C 0,0 km/h (0 Bft)
08.05.2016 03:00 6,2 C 5,9 C 78 % 1011,9 hPa 0,0 mm 0,9 km/h (0 Bft) O-SO 112 0 min 2,7 C 0,0 km/h (0 Bft)
08.05.2016 03:05 6,0 C 5,8 C 78 % 1011,9 hPa 0,0 mm 0,9 km/h (0 Bft) NO 45 0 min 2,5 C 0,0 km/h (0 Bft)
08.05.2016 03:10 6,2 C 5,9 C 79 % 1011,9 hPa 0,0 mm 0,0 km/h (0 Bft) O-NO 67 0 min 2,8 C 0,0 km/h (0 Bft)
08.05.2016 03:15 6,1 C 5,7 C 79 % 1011,9 hPa 0,0 mm 0,0 km/h (0 Bft) O-NO 67 0 min 2,7 C 0,0 km/h (0 Bft)
08.05.2016 03:20 6,0 C 5,6 C 78 % 1011,9 hPa 0,0 mm 0,0 km/h (0 Bft) NO 45 0 min 2,5 C 0,0 km/h (0 Bft)
08.05.2016 03:25 5,7 C 5,3 C 78 % 1011,9 hPa 0,0 mm 0,0 km/h (0 Bft) O 90 0 min 2,2 C 0,0 km/h (0 Bft)
08.05.2016 03:30 5,5 C 5,1 C 78 % 1011,9 hPa 0,0 mm 0,0 km/h (0 Bft) O-NO 67 0 min 2,0 C 0,0 km/h (0 Bft)
08.05.2016 03:32 5,2 C 4,9 C 78 % 1011,8 hPa 0,0 mm 0,0 km/h (0 Bft) O-NO 67 0 min 1,7 C 0,0 km/h (0 Bft)
08.05.2016 03:33 5,2 C 4,9 C 78 % 1011,8 hPa 0,0 mm 0,0 km/h (0 Bft) O-NO 67 0 min 1,7 C 0,0 km/h (0 Bft)
08.05.2016 03:35 5,2 C 4,9 C 78 % 1011,8 hPa 0,0 mm 0,0 km/h (0 Bft) O-NO 67 0 min 1,7 C 0,0 km/h (0 Bft)
08.05.2016 03:40 5,5 C 5,0 C 79 % 1011,8 hPa 0,0 mm 0,0 km/h (0 Bft) O-SO 112 0 min 2,2 C 0,0 km/h (0 Bft)
08.05.2016 03:45 5,8 C 5,2 C 80 % 1011,8 hPa 0,0 mm 0,0 km/h (0 Bft) SW 225 0 min 2,6 C 0,0 km/h (0 Bft)
08.05.2016 03:50 6,0 C 5,4 C 80 % 1011,8 hPa 0,0 mm 1,5 km/h (1 Bft) S 180 0 min 2,8 C 5,4 km/h (1 Bft)
08.05.2016 03:55 6,0 C 5,6 C 80 % 1011,9 hPa 0,0 mm 2,4 km/h (1 Bft) NO 45 0 min 2,8 C 0,0 km/h (0 Bft)
08.05.2016 04:00 5,9 C 5,5 C 81 % 1011,9 hPa 0,0 mm 1,5 km/h (1 Bft) O-NO 67 0 min 2,9 C 0,0 km/h (0 Bft)
08.05.2016 04:05 5,3 C 5,0 C 79 % 1011,9 hPa 0,0 mm 0,0 km/h (0 Bft) NO 45 0 min 2,0 C 0,0 km/h (0 Bft)
08.05.2016 04:10 5,4 C 5,0 C 79 % 1011,9 hPa 0,0 mm 0,0 km/h (0 Bft) O-NO 67 0 min 2,1 C 0,0 km/h (0 Bft)
08.05.2016 04:15 5,0 C 4,6 C 79 % 1011,8 hPa 0,0 mm 0,0 km/h (0 Bft) O-SO 112 0 min 1,7 C 0,0 km/h (0 Bft)
08.05.2016 04:20 4,8 C 4,5 C 79 % 1011,8 hPa 0,0 mm 0,0 km/h (0 Bft) O-NO 67 0 min 1,5 C 0,0 km/h (0 Bft)
08.05.2016 04:25 4,7 C 4,4 C 79 % 1011,8 hPa 0,0 mm 0,0 km/h (0 Bft) NW 315 0 min 1,4 C 0,0 km/h (0 Bft)
08.05.2016 04:30 5,0 C 4,6 C 80 % 1011,8 hPa 0,0 mm 0,0 km/h (0 Bft) O-SO 112 0 min 1,8 C 0,0 km/h (0 Bft)
08.05.2016 04:35 5,2 C 4,8 C 76 % 1011,7 hPa 0,0 mm 0,0 km/h (0 Bft) O-NO 67 0 min 1,3 C 0,0 km/h (0 Bft)
08.05.2016 04:40 5,1 C 4,7 C 81 % 1011,7 hPa 0,0 mm 0,0 km/h (0 Bft) O 90 0 min 2,1 C 0,0 km/h (0 Bft)
08.05.2016 04:45 5,1 C 4,8 C 76 % 1011,7 hPa 0,0 mm 0,0 km/h (0 Bft) S-SO 157 0 min 1,2 C 0,0 km/h (0 Bft)
08.05.2016 04:50 5,4 C 4,9 C 76 % 1011,7 hPa 0,0 mm 0,0 km/h (0 Bft) O-SO 112 0 min 1,5 C 0,0 km/h (0 Bft)
08.05.2016 04:55 4,9 C 4,5 C 80 % 1011,9 hPa 0,0 mm 0,0 km/h (0 Bft) N-NO 22 0 min 1,7 C 0,0 km/h (0 Bft)
08.05.2016 05:00 4,4 C 4,1 C 79 % 1011,9 hPa 0,0 mm 0,0 km/h (0 Bft) NO 45 0 min 1,1 C 0,0 km/h (0 Bft)
08.05.2016 05:05 4,2 C 3,9 C 79 % 1011,9 hPa 0,0 mm 0,0 km/h (0 Bft) O-SO 112 0 min 0,9 C 0,0 km/h (0 Bft)
08.05.2016 05:10 4,6 C 4,1 C 80 % 1011,9 hPa 0,0 mm 0,0 km/h (0 Bft) O-SO 112 0 min 1,5 C 0,0 km/h (0 Bft)
08.05.2016 05:15 4,4 C 4,0 C 80 % 1011,5 hPa 0,0 mm 0,0 km/h (0 Bft) O-NO 67 0 min 1,3 C 0,0 km/h (0 Bft)
08.05.2016 05:20 4,1 C 3,7 C 80 % 1011,5 hPa 0,0 mm 0,0 km/h (0 Bft) O-SO 112 0 min 1,0 C 0,0 km/h (0 Bft)
08.05.2016 05:25 4,2 C 3,7 C 80 % 1011,5 hPa 0,0 mm 0,0 km/h (0 Bft) O-NO 67 0 min 1,1 C 0,0 km/h (0 Bft)
08.05.2016 05:30 4,4 C 3,9 C 81 % 1011,5 hPa 0,0 mm 0,0 km/h (0 Bft) NO 45 0 min 1,4 C 0,0 km/h (0 Bft)
08.05.2016 05:35 4,0 C 3,7 C 80 % 1011,9 hPa 0,0 mm 0,0 km/h (0 Bft) N-NO 22 0 min 0,9 C 0,0 km/h (0 Bft)
08.05.2016 05:40 3,8 C 3,5 C 80 % 1011,9 hPa 0,0 mm 0,0 km/h (0 Bft) NO 45 0 min 0,7 C 0,0 km/h (0 Bft)
08.05.2016 05:45 3,7 C 3,3 C 80 % 1011,9 hPa 0,0 mm 0,0 km/h (0 Bft) N-NO 22 0 min 0,6 C 0,0 km/h (0 Bft)
08.05.2016 05:50 3,6 C 3,2 C 80 % 1011,9 hPa 0,0 mm 0,0 km/h (0 Bft) N-NO 22 0 min 0,5 C 0,0 km/h (0 Bft)
08.05.2016 05:55 3,9 C 3,4 C 81 % 1011,6 hPa 0,0 mm 0,0 km/h (0 Bft) O-NO 67 0 min 0,9 C 0,0 km/h (0 Bft)
08.05.2016 06:00 3,7 C 3,3 C 81 % 1011,6 hPa 0,0 mm 0,0 km/h (0 Bft) NW 315 0 min 0,7 C 0,0 km/h (0 Bft)
08.05.2016 06:05 3,8 C 3,4 C 81 % 1011,6 hPa 0,0 mm 0,0 km/h (0 Bft) O-NO 67 0 min 0,8 C 0,0 km/h (0 Bft)
08.05.2016 06:10 3,4 C 3,1 C 81 % 1011,6 hPa 0,0 mm 0,0 km/h (0 Bft) N-NO 22 0 min 0,5 C 0,0 km/h (0 Bft)
08.05.2016 06:15 3,8 C 3,6 C 82 % 1011,8 hPa 0,0 mm 0,0 km/h (0 Bft) SO 135 0 min 1,0 C 0,0 km/h (0 Bft)
08.05.2016 06:20 4,2 C 3,9 C 82 % 1011,8 hPa 0,0 mm 0,0 km/h (0 Bft) O 90 0 min 1,4 C 0,0 km/h (0 Bft)
08.05.2016 06:25 4,4 C 4,3 C 83 % 1011,8 hPa 0,0 mm 0,0 km/h (0 Bft) S-SO 157 0 min 1,8 C 0,0 km/h (0 Bft)
08.05.2016 06:30 4,3 C 5,3 C 83 % 1011,8 hPa 0,0 mm 0,0 km/h (0 Bft) NO 45 0 min 1,7 C 0,0 km/h (0 Bft)
08.05.2016 06:32 4,6 C 7,2 C 83 % 1011,9 hPa 0,0 mm 0,0 km/h (0 Bft) S 180 2 min 2,0 C 0,0 km/h (0 Bft)
08.05.2016 06:34 4,6 C 7,2 C 83 % 1011,9 hPa 0,0 mm 0,0 km/h (0 Bft) S 180 2 min 2,0 C 0,0 km/h (0 Bft)
08.05.2016 06:35 4,6 C 7,2 C 83 % 1011,9 hPa 0,0 mm 0,0 km/h (0 Bft) S 180 1 min 2,0 C 0,0 km/h (0 Bft)
08.05.2016 06:40 5,0 C 8,3 C 78 % 1011,9 hPa 0,0 mm 0,0 km/h (0 Bft) N 360 5 min 1,5 C 0,0 km/h (0 Bft)
08.05.2016 06:45 5,2 C 9,8 C 78 % 1011,9 hPa 0,0 mm 0,3 km/h (0 Bft) W 270 5 min 1,7 C 3,9 km/h (1 Bft)
08.05.2016 06:50 5,5 C 10,5 C 78 % 1011,9 hPa 0,0 mm 0,3 km/h (0 Bft) NO 45 5 min 2,0 C 0,0 km/h (0 Bft)
08.05.2016 06:55 6,0 C 11,9 C 77 % 1011,9 hPa 0,0 mm 0,3 km/h (0 Bft) O-NO 67 5 min 2,3 C 0,0 km/h (0 Bft)
08.05.2016 07:00 6,6 C 12,4 C 77 % 1011,9 hPa 0,0 mm 0,0 km/h (0 Bft) NO 45 5 min 2,9 C 0,0 km/h (0 Bft)
08.05.2016 07:05 6,9 C 12,3 C 76 % 1011,9 hPa 0,0 mm 1,2 km/h (1 Bft) W 270 5 min 3,0 C 0,0 km/h (0 Bft)
08.05.2016 07:10 6,9 C 13,5 C 75 % 1011,9 hPa 0,0 mm 1,2 km/h (1 Bft) O 90 5 min 2,8 C 0,0 km/h (0 Bft)
08.05.2016 07:15 7,0 C 14,8 C 74 % 1012,1 hPa 0,0 mm 0,0 km/h (0 Bft) S 180 5 min 2,7 C 0,0 km/h (0 Bft)
08.05.2016 07:20 7,0 C 15,6 C 74 % 1012,1 hPa 0,0 mm 0,0 km/h (0 Bft) N-NO 22 5 min 2,7 C 0,0 km/h (0 Bft)
08.05.2016 07:25 7,1 C 17,0 C 74 % 1012,1 hPa 0,0 mm 0,0 km/h (0 Bft) NO 45 5 min 2,8 C 0,0 km/h (0 Bft)
08.05.2016 07:30 7,5 C 17,9 C 74 % 1012,1 hPa 0,0 mm 0,0 km/h (0 Bft) NO 45 5 min 3,2 C 0,0 km/h (0 Bft)
08.05.2016 07:35 8,9 C 18,8 C 74 % 1012,4 hPa 0,0 mm 0,0 km/h (0 Bft) NO 45 5 min 4,5 C 0,0 km/h (0 Bft)
08.05.2016 07:40 9,6 C 19,5 C 74 % 1012,4 hPa 0,0 mm 0,0 km/h (0 Bft) NO 45 5 min 5,2 C 0,0 km/h (0 Bft)
08.05.2016 07:45 10,6 C 20,5 C 72 % 1012,4 hPa 0,0 mm 0,0 km/h (0 Bft) NO 45 5 min 5,8 C 0,0 km/h (0 Bft)
08.05.2016 07:50 10,9 C 20,9 C 71 % 1012,4 hPa 0,0 mm 0,0 km/h (0 Bft) N-NO 22 5 min 5,9 C 0,0 km/h (0 Bft)
08.05.2016 07:55 11,6 C 21,9 C 69 % 1012,6 hPa 0,0 mm 0,0 km/h (0 Bft) NO 45 5 min 6,1 C 0,0 km/h (0 Bft)
08.05.2016 08:00 11,6 C 22,2 C 67 % 1012,6 hPa 0,0 mm 0,0 km/h (0 Bft) NO 45 5 min 5,7 C 0,0 km/h (0 Bft)
08.05.2016 08:05 12,3 C 22,8 C 66 % 1012,6 hPa 0,0 mm 0,0 km/h (0 Bft) NO 45 5 min 6,1 C 0,0 km/h (0 Bft)
08.05.2016 08:10 12,6 C 23,4 C 65 % 1012,6 hPa 0,0 mm 0,0 km/h (0 Bft) NO 45 5 min 6,2 C 0,0 km/h (0 Bft)
08.05.2016 08:15 13,1 C 23,7 C 62 % 1012,4 hPa 0,0 mm 0,0 km/h (0 Bft) NO 45 5 min 6,0 C 0,0 km/h (0 Bft)
08.05.2016 08:20 13,3 C 24,3 C 61 % 1012,4 hPa 0,0 mm 0,0 km/h (0 Bft) NO 45 5 min 5,9 C 0,0 km/h (0 Bft)
08.05.2016 08:25 13,6 C 24,8 C 60 % 1012,4 hPa 0,0 mm 0,0 km/h (0 Bft) O 90 5 min 6,0 C 0,0 km/h (0 Bft)
08.05.2016 08:30 13,8 C 24,7 C 60 % 1012,4 hPa 0,0 mm 0,0 km/h (0 Bft) NO 45 5 min 6,2 C 0,0 km/h (0 Bft)
08.05.2016 08:35 14,3 C 25,2 C 60 % 1012,5 hPa 0,0 mm 0,0 km/h (0 Bft) O-NO 67 5 min 6,6 C 0,0 km/h (0 Bft)
08.05.2016 08:40 14,6 C 25,2 C 59 % 1012,5 hPa 0,0 mm 0,0 km/h (0 Bft) NO 45 5 min 6,7 C 0,0 km/h (0 Bft)
08.05.2016 08:45 15,4 C 25,8 C 59 % 1012,5 hPa 0,0 mm 0,0 km/h (0 Bft) NO 45 5 min 7,4 C 0,0 km/h (0 Bft)
08.05.2016 08:50 15,9 C 26,5 C 59 % 1012,5 hPa 0,0 mm 0,0 km/h (0 Bft) O-NO 67 5 min 7,9 C 0,0 km/h (0 Bft)
08.05.2016 08:55 16,3 C 26,7 C 56 % 1012,9 hPa 0,0 mm 0,0 km/h (0 Bft) NO 45 5 min 7,5 C 0,0 km/h (0 Bft)
08.05.2016 09:00 16,8 C 27,4 C 55 % 1012,9 hPa 0,0 mm 0,0 km/h (0 Bft) NO 45 5 min 7,7 C 0,0 km/h (0 Bft)
08.05.2016 09:05 16,9 C 27,1 C 52 % 1012,9 hPa 0,0 mm 0,3 km/h (0 Bft) O-NO 67 5 min 7,0 C 0,0 km/h (0 Bft)
08.05.2016 09:10 17,1 C 26,4 C 51 % 1012,9 hPa 0,0 mm 0,6 km/h (0 Bft) N-NO 22 5 min 6,9 C 0,0 km/h (0 Bft)
08.05.2016 09:15 17,8 C 26,3 C 50 % 1013,2 hPa 0,0 mm 1,2 km/h (1 Bft) O-NO 67 5 min 7,2 C 4,5 km/h (1 Bft)
08.05.2016 09:20 17,8 C 25,8 C 50 % 1013,2 hPa 0,0 mm 1,5 km/h (1 Bft) N-NW 337 5 min 7,2 C 6,0 km/h (2 Bft)
08.05.2016 09:25 17,8 C 25,0 C 49 % 1013,2 hPa 0,0 mm 3,0 km/h (1 Bft) O-NO 67 5 min 6,9 C 8,9 km/h (2 Bft)
08.05.2016 09:30 17,9 C 24,7 C 48 % 1013,2 hPa 0,0 mm 3,9 km/h (1 Bft) O-SO 112 5 min 6,7 C 4,8 km/h (1 Bft)
08.05.2016 09:32 18,4 C 24,4 C 48 % 1013,4 hPa 0,0 mm 3,9 km/h (1 Bft) O-NO 67 2 min 7,2 C 4,2 km/h (1 Bft)
08.05.2016 09:35 18,4 C 24,4 C 48 % 1013,4 hPa 0,0 mm 3,9 km/h (1 Bft) O-NO 67 3 min 7,2 C 4,2 km/h (1 Bft)
08.05.2016 09:40 18,6 C 24,7 C 48 % 1013,4 hPa 0,0 mm 3,6 km/h (1 Bft) O 90 5 min 7,4 C 6,9 km/h (2 Bft)
08.05.2016 09:45 18,9 C 25,4 C 49 % 1013,4 hPa 0,0 mm 1,5 km/h (1 Bft) O-NO 67 5 min 7,9 C 3,0 km/h (1 Bft)
08.05.2016 09:50 18,9 C 25,6 C 48 % 1013,4 hPa 0,0 mm 1,2 km/h (1 Bft) O-NO 67 5 min 7,6 C 3,9 km/h (1 Bft)
08.05.2016 09:55 19,1 C 25,7 C 48 % 1013,9 hPa 0,0 mm 1,8 km/h (1 Bft) N-NO 22 5 min 7,8 C 9,8 km/h (2 Bft)
08.05.2016 10:00 19,2 C 25,6 C 45 % 1013,9 hPa 0,0 mm 3,6 km/h (1 Bft) N-NO 22 5 min 7,0 C 6,3 km/h (2 Bft)
08.05.2016 10:05 19,1 C 25,5 C 46 % 1013,9 hPa 0,0 mm 4,8 km/h (1 Bft) O-NO 67 5 min 7,2 C 4,2 km/h (1 Bft)
08.05.2016 10:10 19,3 C 25,6 C 46 % 1013,9 hPa 0,0 mm 3,9 km/h (1 Bft) O-SO 112 5 min 7,4 C 5,4 km/h (1 Bft)
08.05.2016 10:15 19,2 C 25,5 C 44 % 1014,1 hPa 0,0 mm 3,0 km/h (1 Bft) S 180 5 min 6,7 C 0,0 km/h (0 Bft)
08.05.2016 10:20 19,6 C 26,2 C 45 % 1014,1 hPa 0,0 mm 3,0 km/h (1 Bft) NO 45 5 min 7,3 C 4,2 km/h (1 Bft)
08.05.2016 10:25 19,6 C 25,5 C 44 % 1014,1 hPa 0,0 mm 5,4 km/h (1 Bft) NO 45 5 min 7,0 C 14,3 km/h (3 Bft)
08.05.2016 10:30 19,6 C 25,0 C 44 % 1014,1 hPa 0,0 mm 8,0 km/h (2 Bft) O-NO 67 5 min 7,0 C 9,2 km/h (2 Bft)
08.05.2016 10:35 19,5 C 24,6 C 43 % 1014,2 hPa 0,0 mm 8,6 km/h (2 Bft) NO 45 5 min 6,6 C 19,1 km/h (3 Bft)
08.05.2016 10:40 19,7 C 24,7 C 44 % 1014,2 hPa 0,0 mm 7,7 km/h (2 Bft) O-NO 67 5 min 7,1 C 10,1 km/h (2 Bft)
08.05.2016 10:45 19,7 C 24,6 C 45 % 1014,2 hPa 0,0 mm 7,5 km/h (2 Bft) N-NO 22 5 min 7,4 C 7,5 km/h (2 Bft)
08.05.2016 10:50 19,8 C 24,5 C 43 % 1014,2 hPa 0,0 mm 11,0 km/h (2 Bft) O-NO 67 5 min 6,9 C 30,7 km/h (5 Bft)
08.05.2016 10:55 19,4 C 23,4 C 41 % 1014,6 hPa 0,0 mm 15,5 km/h (3 Bft) N-NO 22 5 min 5,8 C 15,8 km/h (3 Bft)
08.05.2016 11:00 19,3 C 23,0 C 41 % 1014,6 hPa 0,0 mm 18,2 km/h (3 Bft) O-NO 67 0 min 5,7 C 14,0 km/h (3 Bft)
08.05.2016 11:05 19,4 C 22,9 C 41 % 1014,6 hPa 0,0 mm 15,8 km/h (3 Bft) NO 45 0 min 5,8 C 21,5 km/h (4 Bft)
08.05.2016 11:10 19,4 C 22,9 C 41 % 1014,6 hPa 0,0 mm 13,7 km/h (3 Bft) NO 45 5 min 5,8 C 12,8 km/h (3 Bft)
08.05.2016 11:15 19,7 C 23,3 C 40 % 1014,5 hPa 0,0 mm 12,8 km/h (3 Bft) N-NO 22 5 min 5,7 C 23,8 km/h (4 Bft)
08.05.2016 11:20 19,5 C 23,1 C 39 % 1014,5 hPa 0,0 mm 13,4 km/h (3 Bft) N-NO 22 5 min 5,2 C 11,6 km/h (2 Bft)
08.05.2016 11:25 19,6 C 23,2 C 40 % 1014,5 hPa 0,0 mm 14,9 km/h (3 Bft) N-NO 22 5 min 5,6 C 36,1 km/h (5 Bft)
08.05.2016 11:30 19,6 C 23,0 C 40 % 1014,5 hPa 0,0 mm 14,9 km/h (3 Bft) O-NO 67 0 min 5,6 C 15,8 km/h (3 Bft)
08.05.2016 11:35 19,8 C 23,0 C 39 % 1014,6 hPa 0,0 mm 15,5 km/h (3 Bft) N-NO 22 0 min 5,4 C 16,1 km/h (3 Bft)
08.05.2016 11:40 19,9 C 23,2 C 40 % 1014,6 hPa 0,0 mm 13,1 km/h (3 Bft) NW 315 0 min 5,9 C 18,2 km/h (3 Bft)
08.05.2016 11:45 19,9 C 23,3 C 41 % 1014,6 hPa 0,0 mm 13,7 km/h (3 Bft) N-NW 337 0 min 6,3 C 21,2 km/h (4 Bft)
08.05.2016 11:50 20,3 C 23,6 C 40 % 1014,6 hPa 0,0 mm 12,8 km/h (3 Bft) NO 45 0 min 6,3 C 6,9 km/h (2 Bft)
08.05.2016 11:55 20,2 C 23,8 C 41 % 1014,7 hPa 0,0 mm 12,5 km/h (3 Bft) O 90 0 min 6,5 C 25,6 km/h (4 Bft)
08.05.2016 12:00 20,0 C 23,6 C 41 % 1014,7 hPa 0,0 mm 13,7 km/h (3 Bft) O-NO 67 0 min 6,3 C 28,3 km/h (4 Bft)
08.05.2016 12:05 20,0 C 23,3 C 41 % 1014,7 hPa 0,0 mm 14,9 km/h (3 Bft) N-NO 22 0 min 6,3 C 26,8 km/h (4 Bft)
08.05.2016 12:10 20,2 C 23,3 C 41 % 1014,7 hPa 0,0 mm 15,2 km/h (3 Bft) N-NO 22 0 min 6,5 C 12,5 km/h (3 Bft)
08.05.2016 12:15 20,1 C 23,4 C 39 % 1014,4 hPa 0,0 mm 15,8 km/h (3 Bft) NO 45 0 min 5,7 C 18,8 km/h (3 Bft)
08.05.2016 12:20 20,0 C 23,0 C 39 % 1014,4 hPa 0,0 mm 15,8 km/h (3 Bft) N-NW 337 0 min 5,6 C 9,5 km/h (2 Bft)
08.05.2016 12:25 20,4 C 23,6 C 41 % 1014,4 hPa 0,0 mm 14,0 km/h (3 Bft) N 360 0 min 6,7 C 20,0 km/h (4 Bft)
08.05.2016 12:30 20,4 C 23,6 C 39 % 1014,4 hPa 0,0 mm 14,0 km/h (3 Bft) N-NO 22 0 min 6,0 C 18,2 km/h (3 Bft)
08.05.2016 12:32 20,4 C 23,6 C 39 % 1014,2 hPa 0,0 mm 15,2 km/h (3 Bft) NO 45 0 min 6,0 C 17,9 km/h (3 Bft)
08.05.2016 12:36 20,4 C 23,6 C 39 % 1014,2 hPa 0,0 mm 15,2 km/h (3 Bft) NO 45 0 min 6,0 C 17,9 km/h (3 Bft)
08.05.2016 12:40 20,5 C 24,0 C 39 % 1014,2 hPa 0,0 mm 12,5 km/h (3 Bft) NO 45 0 min 6,1 C 23,2 km/h (4 Bft)
08.05.2016 12:45 20,7 C 24,5 C 39 % 1014,2 hPa 0,0 mm 10,4 km/h (2 Bft) O-NO 67 5 min 6,2 C 14,6 km/h (3 Bft)
08.05.2016 12:50 20,7 C 24,3 C 39 % 1014,2 hPa 0,0 mm 11,9 km/h (2 Bft) N-NO 22 0 min 6,2 C 13,7 km/h (3 Bft)
08.05.2016 12:55 20,8 C 24,1 C 39 % 1013,9 hPa 0,0 mm 12,2 km/h (2 Bft) NO 45 0 min 6,3 C 21,2 km/h (4 Bft)
08.05.2016 13:00 20,9 C 23,7 C 39 % 1013,9 hPa 0,0 mm 12,8 km/h (3 Bft) N-NO 22 0 min 6,4 C 19,4 km/h (3 Bft)
08.05.2016 13:05 20,7 C 22,5 C 39 % 1013,9 hPa 0,0 mm 15,2 km/h (3 Bft) O-NO 67 0 min 6,2 C 23,5 km/h (4 Bft)
08.05.2016 13:10 20,8 C 22,2 C 38 % 1013,9 hPa 0,0 mm 15,8 km/h (3 Bft) N-NO 22 0 min 6,0 C 22,1 km/h (4 Bft)
08.05.2016 13:15 20,9 C 22,7 C 39 % 1013,6 hPa 0,0 mm 13,7 km/h (3 Bft) N-NO 22 0 min 6,4 C 21,2 km/h (4 Bft)
08.05.2016 13:20 20,9 C 22,7 C 38 % 1013,6 hPa 0,0 mm 13,1 km/h (3 Bft) N-NO 22 0 min 6,0 C 22,4 km/h (4 Bft)
08.05.2016 13:25 21,0 C 23,7 C 38 % 1013,6 hPa 0,0 mm 14,3 km/h (3 Bft) O 90 0 min 6,1 C 16,7 km/h (3 Bft)
08.05.2016 13:30 21,1 C 24,1 C 38 % 1013,6 hPa 0,0 mm 14,3 km/h (3 Bft) NO 45 0 min 6,2 C 25,0 km/h (4 Bft)
08.05.2016 13:35 21,0 C 24,1 C 38 % 1013,3 hPa 0,0 mm 15,8 km/h (3 Bft) NO 45 0 min 6,1 C 18,2 km/h (3 Bft)
08.05.2016 13:40 20,9 C 23,9 C 39 % 1013,3 hPa 0,0 mm 17,0 km/h (3 Bft) N-NO 22 0 min 6,4 C 10,7 km/h (2 Bft)
08.05.2016 13:45 21,3 C 24,4 C 39 % 1013,3 hPa 0,0 mm 13,7 km/h (3 Bft) N-NW 337 0 min 6,8 C 11,0 km/h (2 Bft)
08.05.2016 13:50 21,2 C 24,5 C 38 % 1013,3 hPa 0,0 mm 14,0 km/h (3 Bft) NO 45 0 min 6,3 C 38,1 km/h (5 Bft)
08.05.2016 13:55 20,9 C 24,0 C 39 % 1013,1 hPa 0,0 mm 17,9 km/h (3 Bft) N-NO 22 0 min 6,4 C 20,3 km/h (4 Bft)
08.05.2016 14:00 21,0 C 24,2 C 39 % 1013,1 hPa 0,0 mm 16,4 km/h (3 Bft) N-NO 22 0 min 6,5 C 10,4 km/h (2 Bft)
08.05.2016 14:05 21,0 C 24,2 C 38 % 1013,1 hPa 0,0 mm 15,2 km/h (3 Bft) N-NW 337 0 min 6,1 C 16,4 km/h (3 Bft)
08.05.2016 14:10 21,3 C 24,4 C 39 % 1013,1 hPa 0,0 mm 15,2 km/h (3 Bft) NO 45 0 min 6,8 C 13,7 km/h (3 Bft)
08.05.2016 14:15 21,4 C 24,7 C 38 % 1012,9 hPa 0,0 mm 15,2 km/h (3 Bft) NO 45 0 min 6,5 C 16,7 km/h (3 Bft)
08.05.2016 14:20 21,2 C 24,6 C 38 % 1012,9 hPa 0,0 mm 14,6 km/h (3 Bft) N-NO 22 0 min 6,3 C 12,5 km/h (3 Bft)
08.05.2016 14:25 21,4 C 24,8 C 38 % 1012,9 hPa 0,0 mm 14,3 km/h (3 Bft) N 360 0 min 6,5 C 21,5 km/h (4 Bft)
08.05.2016 14:30 21,4 C 24,9 C 38 % 1012,9 hPa 0,0 mm 14,3 km/h (3 Bft) O-NO 67 0 min 6,5 C 14,0 km/h (3 Bft)
08.05.2016 14:35 21,3 C 24,6 C 38 % 1012,9 hPa 0,0 mm 16,1 km/h (3 Bft) O-NO 67 0 min 6,4 C 19,4 km/h (3 Bft)
08.05.2016 14:40 21,5 C 24,7 C 39 % 1012,9 hPa 0,0 mm 16,1 km/h (3 Bft) N-NO 22 0 min 7,0 C 15,2 km/h (3 Bft)
08.05.2016 14:45 21,5 C 24,9 C 37 % 1012,9 hPa 0,0 mm 14,3 km/h (3 Bft) NO 45 0 min 6,2 C 19,1 km/h (3 Bft)
08.05.2016 14:50 21,7 C 25,3 C 39 % 1012,9 hPa 0,0 mm 13,1 km/h (3 Bft) NO 45 0 min 7,1 C 35,2 km/h (5 Bft)
08.05.2016 14:55 21,8 C 25,4 C 38 % 1012,8 hPa 0,0 mm 14,9 km/h (3 Bft) O-NO 67 0 min 6,8 C 23,2 km/h (4 Bft)
08.05.2016 15:00 21,8 C 25,4 C 39 % 1012,8 hPa 0,0 mm 15,5 km/h (3 Bft) NO 45 5 min 7,2 C 29,2 km/h (5 Bft)
08.05.2016 15:05 21,8 C 25,3 C 38 % 1012,8 hPa 0,0 mm 16,1 km/h (3 Bft) N-NW 337 0 min 6,8 C 42,9 km/h (6 Bft)
08.05.2016 15:10 21,7 C 25,0 C 37 % 1012,8 hPa 0,0 mm 19,1 km/h (3 Bft) N-NO 22 0 min 6,4 C 22,4 km/h (4 Bft)
08.05.2016 15:15 21,4 C 24,3 C 37 % 1012,4 hPa 0,0 mm 20,6 km/h (4 Bft) O-NO 67 0 min 6,1 C 44,7 km/h (6 Bft)
08.05.2016 15:20 21,4 C 24,1 C 38 % 1012,4 hPa 0,0 mm 18,8 km/h (3 Bft) NO 45 0 min 6,5 C 16,1 km/h (3 Bft)
08.05.2016 15:25 21,5 C 24,3 C 39 % 1012,4 hPa 0,0 mm 17,6 km/h (3 Bft) NO 45 0 min 7,0 C 26,8 km/h (4 Bft)
08.05.2016 15:30 21,7 C 24,7 C 39 % 1012,4 hPa 0,0 mm 16,7 km/h (3 Bft) NO 45 0 min 7,1 C 35,2 km/h (5 Bft)
08.05.2016 15:35 21,5 C 24,7 C 37 % 1012,4 hPa 0,0 mm 15,5 km/h (3 Bft) S-SW 202 0 min 6,2 C 9,5 km/h (2 Bft)
08.05.2016 15:37 21,5 C 24,7 C 37 % 1012,4 hPa 0,0 mm 15,5 km/h (3 Bft) S-SW 202 0 min 6,2 C 9,5 km/h (2 Bft)
08.05.2016 15:40 21,6 C 25,1 C 37 % 1012,4 hPa 0,0 mm 13,7 km/h (3 Bft) NO 45 0 min 6,3 C 29,2 km/h (5 Bft)
08.05.2016 15:45 21,7 C 25,4 C 37 % 1012,4 hPa 0,0 mm 12,2 km/h (2 Bft) O-NO 67 0 min 6,4 C 16,4 km/h (3 Bft)
08.05.2016 15:50 21,7 C 25,7 C 37 % 1012,4 hPa 0,0 mm 12,5 km/h (3 Bft) O-NO 67 5 min 6,4 C 25,6 km/h (4 Bft)
08.05.2016 15:55 21,6 C 25,7 C 37 % 1012,2 hPa 0,0 mm 11,9 km/h (2 Bft) N-NO 22 5 min 6,3 C 7,2 km/h (2 Bft)
08.05.2016 16:00 21,6 C 25,9 C 37 % 1012,2 hPa 0,0 mm 12,5 km/h (3 Bft) O-NO 67 5 min 6,3 C 13,1 km/h (3 Bft)
08.05.2016 16:05 21,6 C 26,2 C 37 % 1012,2 hPa 0,0 mm 9,8 km/h (2 Bft) O-NO 67 5 min 6,3 C 11,9 km/h (2 Bft)
08.05.2016 16:10 21,3 C 26,1 C 37 % 1012,2 hPa 0,0 mm 11,6 km/h (2 Bft) NO 45 5 min 6,0 C 13,1 km/h (3 Bft)
08.05.2016 16:15 20,8 C 24,2 C 37 % 1012,0 hPa 0,0 mm 14,0 km/h (3 Bft) N 360 5 min 5,6 C 18,5 km/h (3 Bft)
08.05.2016 16:20 20,6 C 22,7 C 37 % 1012,0 hPa 0,0 mm 13,7 km/h (3 Bft) N 360 0 min 5,4 C 9,2 km/h (2 Bft)
08.05.2016 16:25 20,5 C 22,5 C 38 % 1012,0 hPa 0,0 mm 13,1 km/h (3 Bft) NO 45 0 min 5,7 C 28,6 km/h (4 Bft)
08.05.2016 16:30 20,7 C 23,6 C 39 % 1012,0 hPa 0,0 mm 11,0 km/h (2 Bft) NO 45 0 min 6,2 C 11,3 km/h (2 Bft)
08.05.2016 16:35 20,8 C 25,0 C 38 % 1012,1 hPa 0,0 mm 11,6 km/h (2 Bft) O-NO 67 5 min 6,0 C 16,1 km/h (3 Bft)
08.05.2016 16:40 20,9 C 25,3 C 38 % 1012,1 hPa 0,0 mm 10,7 km/h (2 Bft) O-NO 67 5 min 6,0 C 6,0 km/h (2 Bft)
08.05.2016 16:45 20,8 C 25,0 C 38 % 1012,1 hPa 0,0 mm 10,4 km/h (2 Bft) NO 45 5 min 6,0 C 13,7 km/h (3 Bft)
08.05.2016 16:50 20,9 C 24,6 C 38 % 1012,1 hPa 0,0 mm 9,2 km/h (2 Bft) O-NO 67 5 min 6,0 C 8,9 km/h (2 Bft)
08.05.2016 16:55 21,0 C 23,5 C 38 % 1012,2 hPa 0,0 mm 12,2 km/h (2 Bft) N-NO 22 0 min 6,1 C 22,1 km/h (4 Bft)
08.05.2016 17:00 20,8 C 22,9 C 38 % 1012,2 hPa 0,0 mm 14,6 km/h (3 Bft) O-NO 67 0 min 6,0 C 16,7 km/h (3 Bft)
08.05.2016 17:05 20,6 C 22,4 C 38 % 1012,2 hPa 0,0 mm 15,2 km/h (3 Bft) N-NO 22 0 min 5,8 C 15,8 km/h (3 Bft)
08.05.2016 17:10 20,4 C 21,5 C 38 % 1012,2 hPa 0,0 mm 15,5 km/h (3 Bft) O-NO 67 0 min 5,6 C 21,2 km/h (4 Bft)
08.05.2016 17:15 20,0 C 20,8 C 38 % 1012,1 hPa 0,0 mm 14,6 km/h (3 Bft) SO 135 0 min 5,2 C 9,5 km/h (2 Bft)
08.05.2016 17:20 19,7 C 20,4 C 38 % 1012,1 hPa 0,0 mm 11,9 km/h (2 Bft) NO 45 0 min 5,0 C 15,8 km/h (3 Bft)
08.05.2016 17:25 19,8 C 20,2 C 39 % 1012,1 hPa 0,0 mm 11,0 km/h (2 Bft) NO 45 0 min 5,4 C 21,8 km/h (4 Bft)
08.05.2016 17:30 20,1 C 20,7 C 39 % 1012,1 hPa 0,0 mm 12,5 km/h (3 Bft) N-NO 22 0 min 5,7 C 21,5 km/h (4 Bft)
08.05.2016 17:35 20,2 C 21,2 C 38 % 1012,1 hPa 0,0 mm 16,4 km/h (3 Bft) N-NO 22 0 min 5,4 C 25,9 km/h (4 Bft)
08.05.2016 17:40 20,2 C 21,2 C 38 % 1012,1 hPa 0,0 mm 18,5 km/h (3 Bft) NO 45 0 min 5,4 C 24,7 km/h (4 Bft)
08.05.2016 17:45 20,3 C 21,2 C 39 % 1012,1 hPa 0,0 mm 17,3 km/h (3 Bft) NO 45 0 min 5,9 C 20,6 km/h (4 Bft)
08.05.2016 17:50 20,3 C 21,2 C 39 % 1012,1 hPa 0,0 mm 15,5 km/h (3 Bft) NO 45 0 min 5,9 C 27,4 km/h (4 Bft)
08.05.2016 17:55 20,3 C 21,2 C 39 % 1011,9 hPa 0,0 mm 14,9 km/h (3 Bft) NO 45 0 min 5,9 C 14,3 km/h (3 Bft)
08.05.2016 18:00 20,3 C 21,0 C 39 % 1011,9 hPa 0,0 mm 15,5 km/h (3 Bft) O-NO 67 0 min 5,9 C 18,2 km/h (3 Bft)
08.05.2016 18:05 20,2 C 21,0 C 39 % 1011,9 hPa 0,0 mm 15,8 km/h (3 Bft) NO 45 0 min 5,8 C 11,0 km/h (2 Bft)
08.05.2016 18:10 20,1 C 21,2 C 39 % 1011,9 hPa 0,0 mm 17,0 km/h (3 Bft) SW 225 0 min 5,7 C 9,5 km/h (2 Bft)
08.05.2016 18:15 19,9 C 21,1 C 40 % 1011,8 hPa 0,0 mm 16,4 km/h (3 Bft) N-NW 337 0 min 5,9 C 16,1 km/h (3 Bft)
08.05.2016 18:20 20,0 C 21,1 C 40 % 1011,8 hPa 0,0 mm 15,8 km/h (3 Bft) N-NO 22 0 min 6,0 C 20,3 km/h (4 Bft)
08.05.2016 18:25 19,9 C 21,2 C 40 % 1011,8 hPa 0,0 mm 15,2 km/h (3 Bft) NO 45 0 min 5,9 C 21,2 km/h (4 Bft)
08.05.2016 18:30 19,8 C 21,2 C 40 % 1011,8 hPa 0,0 mm 15,8 km/h (3 Bft) O-NO 67 0 min 5,8 C 25,3 km/h (4 Bft)
08.05.2016 18:35 19,7 C 21,0 C 39 % 1011,9 hPa 0,0 mm 17,6 km/h (3 Bft) NO 45 0 min 5,4 C 45,6 km/h (6 Bft)
08.05.2016 18:37 19,6 C 20,7 C 39 % 1011,9 hPa 0,0 mm 17,9 km/h (3 Bft) NO 45 0 min 5,3 C 21,2 km/h (4 Bft)
08.05.2016 18:38 19,6 C 20,7 C 39 % 1011,9 hPa 0,0 mm 17,9 km/h (3 Bft) NO 45 0 min 5,3 C 21,2 km/h (4 Bft)
08.05.2016 18:40 19,6 C 20,7 C 39 % 1011,9 hPa 0,0 mm 17,9 km/h (3 Bft) NO 45 0 min 5,3 C 21,2 km/h (4 Bft)
08.05.2016 18:45 19,6 C 20,6 C 39 % 1011,9 hPa 0,0 mm 17,0 km/h (3 Bft) NO 45 0 min 5,3 C 22,1 km/h (4 Bft)
08.05.2016 18:50 19,6 C 20,7 C 40 % 1011,9 hPa 0,0 mm 15,2 km/h (3 Bft) N-NO 22 0 min 5,6 C 14,6 km/h (3 Bft)
08.05.2016 18:55 19,7 C 21,4 C 41 % 1011,8 hPa 0,0 mm 11,9 km/h (2 Bft) O 90 0 min 6,1 C 26,8 km/h (4 Bft)
08.05.2016 19:00 19,5 C 21,1 C 41 % 1011,8 hPa 0,0 mm 13,1 km/h (3 Bft) O-NO 67 0 min 5,9 C 12,5 km/h (3 Bft)
08.05.2016 19:05 19,3 C 20,5 C 41 % 1011,8 hPa 0,0 mm 15,8 km/h (3 Bft) N-NO 22 0 min 5,7 C 19,4 km/h (3 Bft)
08.05.2016 19:10 19,2 C 20,6 C 42 % 1011,8 hPa 0,0 mm 13,1 km/h (3 Bft) O-NO 67 0 min 6,0 C 13,7 km/h (3 Bft)
08.05.2016 19:15 19,2 C 21,0 C 42 % 1011,8 hPa 0,0 mm 12,5 km/h (3 Bft) N-NO 22 0 min 6,0 C 12,8 km/h (3 Bft)
08.05.2016 19:20 19,0 C 21,2 C 42 % 1011,8 hPa 0,0 mm 13,1 km/h (3 Bft) NO 45 5 min 5,8 C 20,3 km/h (4 Bft)
08.05.2016 19:25 19,0 C 21,3 C 43 % 1011,8 hPa 0,0 mm 12,5 km/h (3 Bft) O-NO 67 5 min 6,1 C 9,8 km/h (2 Bft)
08.05.2016 19:30 18,8 C 21,4 C 44 % 1011,8 hPa 0,0 mm 9,2 km/h (2 Bft) O-SO 112 5 min 6,3 C 7,2 km/h (2 Bft)
08.05.2016 19:35 18,6 C 21,4 C 44 % 1011,9 hPa 0,0 mm 6,9 km/h (2 Bft) NO 45 5 min 6,1 C 3,9 km/h (1 Bft)
08.05.2016 19:40 18,5 C 21,3 C 45 % 1011,9 hPa 0,0 mm 6,0 km/h (2 Bft) SO 135 5 min 6,3 C 4,8 km/h (1 Bft)
08.05.2016 19:45 18,1 C 21,0 C 45 % 1011,9 hPa 0,0 mm 4,8 km/h (1 Bft) O-SO 112 5 min 6,0 C 0,0 km/h (0 Bft)
08.05.2016 19:50 17,9 C 20,8 C 45 % 1011,9 hPa 0,0 mm 5,4 km/h (1 Bft) NO 45 5 min 5,8 C 17,9 km/h (3 Bft)
08.05.2016 19:55 17,5 C 20,0 C 45 % 1011,9 hPa 0,0 mm 6,9 km/h (2 Bft) O-NO 67 5 min 5,4 C 4,5 km/h (1 Bft)
08.05.2016 20:00 17,0 C 19,1 C 46 % 1011,9 hPa 0,0 mm 7,7 km/h (2 Bft) O-SO 112 0 min 5,3 C 7,2 km/h (2 Bft)
08.05.2016 20:05 16,4 C 17,7 C 47 % 1011,9 hPa 0,0 mm 3,3 km/h (1 Bft) S 180 0 min 5,1 C 3,0 km/h (1 Bft)
08.05.2016 20:10 16,1 C 17,0 C 48 % 1011,9 hPa 0,0 mm 2,4 km/h (1 Bft) S 180 0 min 5,1 C 4,5 km/h (1 Bft)
08.05.2016 20:15 15,9 C 16,8 C 49 % 1012,2 hPa 0,0 mm 1,5 km/h (1 Bft) NO 45 0 min 5,2 C 10,1 km/h (2 Bft)
08.05.2016 20:20 15,7 C 16,6 C 49 % 1012,2 hPa 0,0 mm 1,5 km/h (1 Bft) O-SO 112 0 min 5,0 C 0,0 km/h (0 Bft)
08.05.2016 20:25 15,8 C 16,0 C 50 % 1012,2 hPa 0,0 mm 3,0 km/h (1 Bft) O-SO 112 0 min 5,4 C 0,0 km/h (0 Bft)
08.05.2016 20:30 15,4 C 15,5 C 51 % 1012,2 hPa 0,0 mm 3,3 km/h (1 Bft) O 90 0 min 5,3 C 8,3 km/h (2 Bft)
08.05.2016 20:35 15,4 C 15,3 C 52 % 1012,3 hPa 0,0 mm 3,6 km/h (1 Bft) NO 45 0 min 5,6 C 18,8 km/h (3 Bft)
08.05.2016 20:40 15,5 C 15,3 C 52 % 1012,3 hPa 0,0 mm 5,1 km/h (1 Bft) SO 135 0 min 5,7 C 13,4 km/h (3 Bft)
08.05.2016 20:45 15,4 C 15,2 C 53 % 1012,3 hPa 0,0 mm 6,3 km/h (2 Bft) O-NO 67 0 min 5,9 C 0,0 km/h (0 Bft)
08.05.2016 20:50 15,2 C 15,0 C 54 % 1012,3 hPa 0,0 mm 6,0 km/h (2 Bft) SO 135 0 min 6,0 C 8,0 km/h (2 Bft)
08.05.2016 20:55 14,8 C 14,7 C 55 % 1012,5 hPa 0,0 mm 4,2 km/h (1 Bft) O-SO 112 0 min 5,8 C 6,9 km/h (2 Bft)
08.05.2016 21:00 14,6 C 14,5 C 55 % 1012,5 hPa 0,0 mm 3,9 km/h (1 Bft) O-NO 67 0 min 5,7 C 5,7 km/h (1 Bft)
08.05.2016 21:05 14,9 C 14,7 C 56 % 1012,5 hPa 0,0 mm 4,5 km/h (1 Bft) O-SO 112 0 min 6,2 C 6,6 km/h (2 Bft)
08.05.2016 21:10 14,8 C 14,6 C 56 % 1012,5 hPa 0,0 mm 4,8 km/h (1 Bft) SW 225 0 min 6,1 C 0,0 km/h (0 Bft)
08.05.2016 21:15 14,5 C 14,3 C 57 % 1012,6 hPa 0,0 mm 3,6 km/h (1 Bft) N-NW 337 0 min 6,1 C 3,3 km/h (1 Bft)
08.05.2016 21:20 14,0 C 13,9 C 57 % 1012,6 hPa 0,0 mm 1,5 km/h (1 Bft) O-NO 67 0 min 5,6 C 0,0 km/h (0 Bft)
08.05.2016 21:25 13,7 C 13,6 C 58 % 1012,6 hPa 0,0 mm 1,5 km/h (1 Bft) S 180 0 min 5,6 C 4,2 km/h (1 Bft)
08.05.2016 21:30 13,5 C 13,4 C 58 % 1012,6 hPa 0,0 mm 1,5 km/h (1 Bft) SO 135 0 min 5,4 C 0,0 km/h (0 Bft)
08.05.2016 21:35 13,0 C 12,9 C 58 % 1012,6 hPa 0,0 mm 0,6 km/h (0 Bft) SO 135 0 min 4,9 C 0,0 km/h (0 Bft)
08.05.2016 21:37 12,8 C 12,6 C 59 % 1012,6 hPa 0,0 mm 0,0 km/h (0 Bft) S 180 0 min 5,0 C 0,0 km/h (0 Bft)
08.05.2016 21:39 12,8 C 12,6 C 59 % 1012,6 hPa 0,0 mm 0,0 km/h (0 Bft) S 180 0 min 5,0 C 0,0 km/h (0 Bft)
08.05.2016 21:40 12,8 C 12,6 C 59 % 1012,6 hPa 0,0 mm 0,0 km/h (0 Bft) S 180 0 min 5,0 C 0,0 km/h (0 Bft)
08.05.2016 21:45 12,7 C 12,8 C 63 % 1012,6 hPa 0,0 mm 0,6 km/h (0 Bft) SO 135 0 min 5,8 C 5,4 km/h (1 Bft)
08.05.2016 21:50 12,8 C 12,8 C 63 % 1012,6 hPa 0,0 mm 0,9 km/h (0 Bft) O-SO 112 0 min 5,9 C 0,0 km/h (0 Bft)
08.05.2016 21:55 12,3 C 12,1 C 62 % 1012,8 hPa 0,0 mm 0,3 km/h (0 Bft) S-SW 202 0 min 5,2 C 0,0 km/h (0 Bft)
08.05.2016 22:00 11,9 C 11,7 C 63 % 1012,8 hPa 0,0 mm 0,0 km/h (0 Bft) S-SO 157 0 min 5,1 C 0,0 km/h (0 Bft)
08.05.2016 22:05 12,4 C 12,0 C 67 % 1012,8 hPa 0,0 mm 0,0 km/h (0 Bft) O-SO 112 0 min 6,4 C 0,0 km/h (0 Bft)
08.05.2016 22:10 12,4 C 12,0 C 63 % 1012,8 hPa 0,0 mm 0,0 km/h (0 Bft) SO 135 0 min 5,6 C 0,0 km/h (0 Bft)
08.05.2016 22:15 11,7 C 11,5 C 66 % 1012,9 hPa 0,0 mm 0,0 km/h (0 Bft) O-SO 112 0 min 5,6 C 0,0 km/h (0 Bft)
08.05.2016 22:20 11,0 C 11,0 C 66 % 1012,9 hPa 0,0 mm 0,0 km/h (0 Bft) S-SO 157 0 min 4,9 C 0,0 km/h (0 Bft)
08.05.2016 22:25 10,8 C 10,9 C 64 % 1012,9 hPa 0,0 mm 0,0 km/h (0 Bft) SO 135 0 min 4,3 C 0,0 km/h (0 Bft)
08.05.2016 22:30 10,5 C 10,7 C 65 % 1012,9 hPa 0,0 mm 0,0 km/h (0 Bft) SO 135 0 min 4,2 C 0,0 km/h (0 Bft)
08.05.2016 22:35 11,0 C 11,1 C 67 % 1012,9 hPa 0,0 mm 0,0 km/h (0 Bft) SO 135 0 min 5,1 C 0,0 km/h (0 Bft)
08.05.2016 22:40 11,3 C 11,3 C 68 % 1012,9 hPa 0,0 mm 0,3 km/h (0 Bft) O 90 0 min 5,6 C 0,0 km/h (0 Bft)
08.05.2016 22:45 11,3 C 11,3 C 68 % 1012,9 hPa 0,0 mm 0,9 km/h (0 Bft) S 180 0 min 5,6 C 0,0 km/h (0 Bft)
08.05.2016 22:50 11,1 C 11,1 C 68 % 1012,9 hPa 0,0 mm 0,6 km/h (0 Bft) NO 45 0 min 5,4 C 0,0 km/h (0 Bft)
08.05.2016 22:55 10,4 C 10,5 C 68 % 1012,8 hPa 0,0 mm 0,0 km/h (0 Bft) S 180 0 min 4,8 C 0,0 km/h (0 Bft)
08.05.2016 23:00 10,6 C 10,7 C 69 % 1012,8 hPa 0,0 mm 0,3 km/h (0 Bft) S-SO 157 0 min 5,2 C 0,0 km/h (0 Bft)
08.05.2016 23:05 10,9 C 10,9 C 69 % 1012,8 hPa 0,0 mm 0,6 km/h (0 Bft) SO 135 0 min 5,4 C 0,0 km/h (0 Bft)
08.05.2016 23:10 10,9 C 10,8 C 69 % 1012,8 hPa 0,0 mm 0,6 km/h (0 Bft) O-NO 67 0 min 5,4 C 0,0 km/h (0 Bft)
08.05.2016 23:15 10,4 C 10,3 C 69 % 1012,8 hPa 0,0 mm 0,3 km/h (0 Bft) SO 135 0 min 5,0 C 3,6 km/h (1 Bft)
08.05.2016 23:20 9,9 C 9,8 C 74 % 1012,8 hPa 0,0 mm 0,6 km/h (0 Bft) O-SO 112 0 min 5,5 C 0,0 km/h (0 Bft)
08.05.2016 23:25 9,2 C 9,2 C 73 % 1012,8 hPa 0,0 mm 0,6 km/h (0 Bft) O-SO 112 0 min 4,6 C 0,0 km/h (0 Bft)
08.05.2016 23:30 9,1 C 9,0 C 73 % 1012,8 hPa 0,0 mm 0,3 km/h (0 Bft) NO 45 0 min 4,5 C 0,0 km/h (0 Bft)
08.05.2016 23:35 9,5 C 9,7 C 72 % 1012,8 hPa 0,0 mm 0,0 km/h (0 Bft) O-SO 112 0 min 4,7 C 0,0 km/h (0 Bft)
08.05.2016 23:40 9,8 C 9,9 C 72 % 1012,8 hPa 0,0 mm 0,6 km/h (0 Bft) SO 135 0 min 5,0 C 3,3 km/h (1 Bft)
08.05.2016 23:45 10,0 C 10,0 C 72 % 1012,8 hPa 0,0 mm 0,6 km/h (0 Bft) SO 135 0 min 5,2 C 0,0 km/h (0 Bft)
08.05.2016 23:50 10,0 C 10,0 C 71 % 1012,8 hPa 0,0 mm 0,6 km/h (0 Bft) O-SO 112 0 min 5,0 C 0,0 km/h (0 Bft)
08.05.2016 23:55 9,6 C 9,6 C 71 % 1012,9 hPa 0,0 mm 0,6 km/h (0 Bft) NO 45 0 min 4,6 C 0,0 km/h (0 Bft)
_ Min-Zeit 06:10 06:10 16:20 05:30 - 23:35 - - - 06:10 23:55
Minimum _ 3,4 C 3,1 C 37 % 1011,5 hPa - 0,0 km/h (0 Bft) - - - 0,5 C 0,0 km/h (0 Bft)
_ Max-Zeit 15:05 09:00 06:35 12:10 23:55 15:15 - - 19:55 09:45 18:35
Maximum _ 21,8 C 27,4 C 83 % 1014,7 hPa 0,0 mm 20,6 km/h
O-NO (4 Bft)
- - 5 min 7,9 C 45,6 km/h
NO (6 Bft)
Durchschnitt _ 14,0 C 16,4 C 57 % 1012,6 hPa #0,0 mm 6,1 km/h (2 Bft) NO - #6:25 h 4,8 C 8,2 km/h (2 Bft)